Regional Weather Roundup
Issued by NWS Raleigh/Durham, NC

Home | Current Version | Previous Version | Text Only | Print | Product List | Glossary On
Versions: 1 2 3 4 5 6 7 8 9 10 11 12 13 14 15 16 17 18 19 20 21 22 23 24 25 26 27 28 29 30 31 32 33 34 35 36 37 38 39 40 41 42 43 44 45 46 47 48 49 50
000
ASUS42 KRAH 231010
RWRRAH
NORTH CAROLINA WEATHER ROUNDUP
NATIONAL WEATHER SERVICE RALEIGH NC
600 AM EDT MON APR 23 2018

NOTE: "FAIR" INDICATES FEW OR NO CLOUDS BELOW 12,000 FEET WITH NO
SIGNIFICANT WEATHER AND/OR OBSTRUCTIONS TO VISIBILITY.

NCZ001-053-055-056-065-067-231100-
WESTERN NORTH CAROLINA

CITY           SKY/WX    TMP DP  RH WIND       PRES   REMARKS
ASHEVILLE      RAIN      52  48  86 SE13G22   30.19R
JEFFERSON      CLOUDY    46  46  97 SE8       30.24S
MORGANTON      CLOUDY    55  53  91 E3        30.26S
HICKORY        CLOUDY    56  48  74 VRB5      30.24S
RUTHERFORDTON  DRIZZLE   54  54 100 E7        30.23R
MOUNT AIRY     CLOUDY    56  45  66 E3        30.31R
BOONE          CLOUDY    47  46  97 SE13G24   30.23F
$$

NCZ021-022-025-041-071-084-088-231100-
CENTRAL NORTH CAROLINA

CITY           SKY/WX    TMP DP  RH WIND       PRES   REMARKS
CHARLOTTE      CLOUDY    58  47  66 E12       30.22F
GREENSBORO     CLOUDY    54  39  57 SE7       30.28R
WINSTON-SALEM  MOCLDY    54  41  61 E7        30.29R
RALEIGH-DURHAM CLOUDY    53  46  77 E7        30.31S
FORT BRAGG     CLOUDY    55  49  80 E6        30.28S
FAYETTEVILLE   FAIR      53  48  83 NE5       30.28R
BURLINGTON     MOCLDY    54  41  61 E6        30.29R
LAURINBURG     FAIR      56  49  77 E7        30.26F
$$

NCZ011-015-027-028-043-044-047-080-103-231100-
NORTHEASTERN NORTH CAROLINA

CITY           SKY/WX    TMP DP  RH WIND       PRES   REMARKS
ROCKY MT-WILSO FAIR      49  45  86 NE5       30.33S
GREENVILLE     FAIR      50  48  93 CALM      30.34R
WASHINGTON     FAIR      49  48  93 E6        30.34R
ELIZABETH CITY FAIR      54  50  86 E7        30.37S
MANTEO         FAIR      55  49  83 E8        30.38R
CAPE HATTERAS  FAIR      59  50  72 E8        30.34S
$$

NCZ078-087-090-091-093-098-101-231100-
SOUTHEASTERN NORTH CAROLINA

CITY           SKY/WX    TMP DP  RH WIND       PRES   REMARKS
LUMBERTON      FAIR      56  51  84 E6        30.25S
GOLDSBORO      CLOUDY    53  50  88 E8        30.29S
KINSTON        FAIR      53  51  91 E7        30.32S
KENANSVILLE    FAIR      55  52  88 CALM      30.31R
NEW BERN       FAIR      56  54  93 E7        30.32S
CHERRY POINT   NOT AVBL
BEAUFORT       FAIR      63  53  70 E9        30.30R
JACKSONVILLE   FAIR      60  53  77 E7        30.29R
WILMINGTON     FAIR      62  51  67 E6        30.27S
$$




USA.gov is the U.S. government's official web portal to all federal, state and local government web resources and services.